sat.trackr.live / text

‹ back to catalog

STARLINK-3124

NORAD 49456 · 2021-104BA

PAYLOAD ACTIVE UNKNOWN

§ Identity

Operator
Country
US
Launch date
2021-11-13
Launch site
AFETR
Launch vehicle
Mass (kg)
RCS (m²)

Purposes: comms

External: N2YO · Heavens-Above · Gunter

§ Orbital elements

Epoch: 2026-09-19T17:59:21.520032Z

Period
93.90 min
Inclination
53.1609°
Eccentricity
0.0001606
Mean motion
15.33545410 rev/d
Perigee alt
464.1 km
Apogee alt
466.3 km
Semi-major
6,843.4 km
B*
2.4565e-5
RAAN
55.3485°
Arg perigee
64.4183°
Mean anomaly
295.6985°
Rev number
26,824

§ Raw data

STARLINK-31241 49456U 21104BA  26262.74955463  .00000435  00000+0  24565-4 0  99942 49456  53.1609  55.3485 0001606  64.4183 295.6985 15.33545410268240

JSON: /api/v1/satellites/49456 · /tle

For live sub-satellite position, see the globe view (requires WebGL).

§ Visibility from observer

Set your observer location to see the next 7 days of passes ≥ 10°. The values pass through the URL so the page stays shareable.

No JS? Fill the form by hand. The geolocation button needs JavaScript.